[[{"header":{"parameterUnit":"m.s-1","parameterCategory":1,"la1":30.2991,"la2":30.254,"lo1":-89.0895,"lo2":-89.0444,"dy":0.0017,"dx":0.0017,"nx":28,"ny":28,"refTime":"2025-01-12T03:00:00:Z","depth":0,"parameterNumber":2,"parameterNumberName":"U-component_of_WINDS"},"data":[0,0,0,0,0,0,0,0,0,0,0,0,0,0,0,0,0,0,0,0,0,0,0,0,0,0,0,0,0,0,0,0,0,0,0,0,0,0,0,0,0,0,0,0,0,0,0,0,0,0,0,0,0,0,0,0,0,0,-5.4549,-5.4549,0,-5.4529,-5.4529,-5.4529,-5.4306,-5.4301,-5.4295,-5.429,-5.4272,-5.4277,-5.4281,0,0,0,0,0,0,0,0,0,0,0,0,0,-5.4396,-5.44,-5.4549,-5.4549,-5.4549,-5.4529,-5.4529,-5.4529,-5.4307,-5.43,-5.4294,-5.4287,-5.427,-5.4276,-5.4282,0,0,0,0,0,0,0,0,0,0,0,0,0,-5.4428,-5.4401,-5.4549,-5.4436,-5.4425,-5.453,-5.4529,-5.4529,-5.4309,-5.43,-5.4292,-5.4284,-5.4269,-5.4276,-5.4283,-5.4495,0,0,-5.4304,-5.4307,0,0,0,0,0,0,0,0,-5.4427,-5.4434,-5.4452,-5.4444,-5.4432,-5.4412,-5.4468,-5.4518,-5.4311,-5.4353,-5.429,-5.428,-5.4325,-5.4327,-5.4342,-5.4494,-5.4493,-5.4305,-5.4309,-5.4312,-5.4314,0,0,0,0,0,0,0,-5.4425,-5.4434,-5.4541,-5.4453,-5.4441,-5.4386,-5.4381,-5.4477,-5.4387,-5.4349,-5.4332,-5.4333,-5.4318,-5.4336,-5.434,-5.4493,-5.4305,-5.4311,-5.4316,-5.4318,-5.4819,-5.4827,0,0,0,0,0,0,-5.4438,-5.4433,-5.4542,-5.4541,-5.4408,-5.4396,-5.439,-5.4427,-5.4385,-5.4371,-5.434,-5.4323,-5.4328,-5.4332,-5.4339,-5.4585,-5.4312,-5.4319,-5.4323,-5.481,-5.4821,-5.483,0,0,0,0,0,0,-5.4435,-5.445,-5.4542,-5.4482,-5.449,-5.4407,-5.445,-5.4431,-5.4448,-5.4379,-5.4362,-5.4375,-5.4321,-5.4329,-5.4458,-5.4582,-5.4322,-5.4329,-5.4799,-5.4813,-5.4825,-5.5081,0,0,0,0,0,0,-5.4432,-5.445,-5.453,-5.4486,-5.4494,-5.4663,-5.4457,-5.4436,-5.4461,-5.4438,-5.4407,-5.4393,-5.4315,-5.4448,-5.4465,-5.4587,-5.4334,-5.4788,-5.4805,-5.4821,-5.5061,-5.5101,-5.5136,0,0,0,0,0,-5.4427,-5.4603,-5.4535,-5.4549,-5.4592,-5.467,-5.4675,-5.4581,-5.4472,-5.4551,-5.4507,-5.4394,-5.4565,-5.4463,-5.448,-5.4606,-5.4779,-5.48,-5.482,-5.5044,-5.5093,-5.5135,0,0,0,0,0,0,-5.4664,-5.4595,-5.4519,-5.4685,-5.4685,-5.4632,-5.473,-5.4636,-5.4667,-5.4644,-5.4527,-5.4522,-5.4669,-5.465,-5.4538,-5.481,-5.4653,-5.4677,-5.4817,-5.4864,-5.49,-5.4903,-5.434,0,0,0,0,0,-5.4735,-5.4804,-5.474,-5.4893,-5.4896,-5.4814,-5.4844,-5.4772,-5.4767,-5.4766,-5.4731,-5.4731,-5.4784,-5.4822,-5.4868,-5.5056,-5.5047,-5.5151,-5.5188,-5.522,-5.5243,-5.5342,-5.5388,-5.4897,-5.4897,-5.4896,0,0,-5.4884,-5.4855,-5.4905,-5.494,-5.4931,-5.5006,-5.4815,-5.4902,-5.4956,-5.4779,-5.4899,-5.4874,-5.4866,-5.5027,-5.5095,-5.5015,-5.5376,-5.5245,-5.5271,-5.5277,-5.5368,-5.5415,-5.5456,-5.4911,-5.4908,-5.4906,0,0,-5.5193,-5.5177,-5.5303,-5.5299,-5.5287,-5.5231,-5.5262,-5.5223,-5.5199,-5.5317,-5.5187,-5.5249,-5.5344,-5.5344,-5.5357,-5.5666,-5.5565,-5.5684,-5.5881,-5.5979,-5.6018,-5.6052,-5.6164,-5.6205,-5.5707,-5.5708,-5.5708,0,-5.538,-5.5486,-5.538,-5.5476,-5.5496,-5.5338,-5.5465,-5.5465,-5.5471,-5.5488,-5.5398,-5.5513,-5.5497,-5.5656,-5.5731,-5.5746,-5.5778,-5.5688,-5.6021,-5.6054,-5.6084,-5.6189,-5.6232,-5.5723,-5.5721,-5.5719,-5.5718,0,-5.5716,-5.5792,-5.5896,-5.5904,-5.5935,-5.6046,-5.5958,-5.6002,-5.5927,-5.5881,-5.6004,-5.5978,-5.6016,-5.6048,-5.5976,-5.6197,-5.6148,-5.6041,-5.5881,-5.6147,-5.6244,-5.6284,-5.5744,-5.5738,-5.5734,-5.573,0,0,-5.6176,-5.6124,-5.6164,-5.6166,-5.6142,-5.6199,-5.6303,-5.634,-5.6381,-5.6389,-5.6474,-5.6558,-5.6459,-5.6474,-5.6399,-5.6486,-5.6735,-5.6368,-5.6366,-5.6439,-5.6979,-5.7061,-5.711,-5.6666,-5.6673,-5.6679,-5.698,0,-5.6475,-5.665,-5.6558,-5.6745,-5.6815,-5.6666,-5.6756,-5.6752,-5.6712,-5.6765,-5.6719,-5.6781,-5.6645,-5.6653,-5.6732,-5.6688,-5.6842,-5.6664,-5.6746,-5.675,-5.6755,-5.716,-5.7247,-5.7532,-5.7017,-5.7024,-5.7028,0,-5.6848,-5.6872,-5.7067,-5.7031,-5.7056,-5.714,-5.7166,-5.7218,-5.721,-5.7175,-5.7192,-5.7097,-5.7197,-5.7038,-5.7175,-5.7057,-5.7085,-5.7068,-5.7077,-5.7083,-5.6907,-5.7179,-5.7621,-5.7665,-5.7087,-5.7082,-5.7078,0,-5.7166,-5.7247,-5.7374,-5.738,-5.7341,-5.7403,-5.7389,-5.7373,-5.7401,-5.7424,-5.7441,-5.7476,-5.7496,-5.7525,-5.7443,-5.7334,-5.7593,-5.7426,-5.7567,-5.757,-5.763,-5.7628,-5.8086,-5.7645,-5.7645,-5.7644,-5.7643,0,-5.7511,-5.7637,-5.7517,-5.7595,-5.7731,-5.7624,-5.7762,-5.7732,-5.7719,-5.779,-5.7662,-5.7732,-5.7617,-5.7676,-5.7612,-5.7737,-5.7746,-5.7721,-5.7703,-5.7734,-5.7738,-5.7752,-5.7731,-5.7655,-5.7653,-5.7651,-5.7649,0,-5.7891,-5.7815,-5.7944,-5.7895,-5.7886,-5.7989,-5.7947,-5.8018,-5.7968,-5.806,-5.8075,-5.7997,-5.8059,-5.7979,-5.8033,-5.799,-5.8161,-5.8112,-5.8165,-5.8151,-5.8298,-5.8286,-5.8782,-5.8843,-5.8363,-5.8367,-5.8371,0,-5.8117,-5.821,-5.8171,-5.8209,-5.8203,-5.8266,-5.8293,-5.8191,-5.8226,-5.8224,-5.8296,-5.8346,-5.8382,-5.8488,-5.8437,-5.8478,-5.843,-5.8601,-5.8436,-5.8465,-5.8436,-5.8432,-5.8442,-5.8636,-5.8642,-5.8647,-5.8651,0,-5.8528,-5.8486,-5.853,-5.8563,-5.8599,-5.862,-5.8631,-5.867,-5.8562,-5.8608,-5.8669,-5.8697,-5.8752,-5.8805,-5.8832,-5.8818,-5.8719,-5.8703,-5.8738,-5.8772,-5.8799,-5.8788,-5.8259,-5.8692,-5.8688,-5.8685,-5.8683,-5.8681,-5.8838,-5.8914,-5.8899,-5.8954,-5.8951,-5.8964,-5.9029,-5.8987,-5.9036,-5.9073,-5.9009,-5.9088,-5.9077,-5.9103,-5.9101,-5.9161,-5.9087,-5.9138,-5.9151,-5.9166,-5.919,-5.8788,-5.9166,-5.9164,-5.9163,-5.9162,-5.9161,0,-5.9244,-5.9227,-5.9277,-5.9297,-5.934,-5.924,-5.9247,-5.929,-5.9361,-5.9359,-5.9396,-5.9468,-5.9518,-5.9471,-5.9512,-5.957,-5.9525,-5.9584,-5.958,-5.9579,-5.9252,-5.9219,-5.962,-5.962,-5.962,-5.962,-5.962,-5.962,-5.946,-5.9584,-5.954,-5.9662,-5.9643,-5.9718,-5.9731,-5.9743,-5.9741,-5.9827,-5.9868,-5.9836,-5.9817,-5.9856,-5.9898,-5.9883,-5.9905,-5.9982,-5.9951,-5.9647,-5.9602,-5.9559,-5.9527,-5.9987,-5.9987,-6.0272,-6.0275,-6.0277]},{"header":{"parameterUnit":"m.s-1","parameterCategory":1,"la1":30.2991,"la2":30.254,"lo1":-89.0895,"lo2":-89.0444,"dy":0.0017,"dx":0.0017,"nx":28,"ny":28,"refTime":"2025-01-12T03:00:00:Z","depth":0,"parameterNumber":3,"parameterNumberName":"V-component_of_WINDS"},"data":[0,0,0,0,0,0,0,0,0,0,0,0,0,0,0,0,0,0,0,0,0,0,0,0,0,0,0,0,0,0,0,0,0,0,0,0,0,0,0,0,0,0,0,0,0,0,0,0,0,0,0,0,0,0,0,0,0,0,-4.0082,-4.0082,0,-4.0074,-4.0074,-4.0074,-4.0017,-4.0016,-4.0014,-4.0013,-4.0005,-4.0006,-4.0007,0,0,0,0,0,0,0,0,0,0,0,0,0,-4.0049,-4.005,-4.0082,-4.0082,-4.0082,-4.0074,-4.0074,-4.0074,-4.0017,-4.0015,-4.0014,-4.0012,-4.0004,-4.0006,-4.0007,0,0,0,0,0,0,0,0,0,0,0,0,0,-4.0054,-4.005,-4.0082,-4.0053,-4.005,-4.0074,-4.0074,-4.0073,-4.0017,-4.0015,-4.0013,-4.0011,-4.0004,-4.0006,-4.0007,-4.0059,0,0,-4.0012,-4.0013,0,0,0,0,0,0,0,0,-4.0054,-4.0056,-4.0057,-4.0055,-4.0052,-4.0044,-4.0059,-4.0069,-4.0018,-4.003,-4.0013,-4.001,-4.002,-4.002,-4.0023,-4.0058,-4.0058,-4.0012,-4.0013,-4.0014,-4.0014,0,0,0,0,0,0,0,-4.0054,-4.0056,-4.0079,-4.0057,-4.0054,-4.004,-4.0038,-4.0061,-4.0037,-4.0029,-4.0025,-4.0024,-4.0018,-4.0021,-4.0022,-4.0058,-4.0012,-4.0014,-4.0015,-4.0015,-4.0134,-4.0136,0,0,0,0,0,0,-4.0058,-4.0056,-4.0079,-4.0079,-4.0048,-4.0042,-4.0041,-4.0049,-4.0036,-4.0032,-4.0026,-4.0022,-4.002,-4.002,-4.0022,-4.008,-4.0014,-4.0015,-4.0016,-4.0132,-4.0134,-4.0137,0,0,0,0,0,0,-4.0057,-4.006,-4.0079,-4.0066,-4.0067,-4.0045,-4.0055,-4.005,-4.0053,-4.0034,-4.003,-4.0034,-4.0018,-4.0019,-4.0049,-4.0079,-4.0016,-4.0018,-4.0129,-4.0132,-4.0135,-4.0198,0,0,0,0,0,0,-4.0056,-4.006,-4.008,-4.0067,-4.0068,-4.0108,-4.0057,-4.0051,-4.0056,-4.005,-4.0041,-4.0037,-4.0017,-4.0047,-4.0051,-4.008,-4.0019,-4.0126,-4.0131,-4.0134,-4.0193,-4.0203,-4.0212,0,0,0,0,0,-4.0056,-4.0098,-4.0081,-4.0084,-4.0092,-4.0109,-4.011,-4.0086,-4.0059,-4.0078,-4.0065,-4.0037,-4.0076,-4.0051,-4.0055,-4.0085,-4.0124,-4.0129,-4.0134,-4.0189,-4.0201,-4.0211,0,0,0,0,0,0,-4.0115,-4.0096,-4.0077,-4.0117,-4.0115,-4.01,-4.0123,-4.0099,-4.0106,-4.01,-4.0069,-4.0068,-4.0102,-4.0097,-4.007,-4.0133,-4.0095,-4.0101,-4.0136,-4.0147,-4.0156,-4.0156,-4.002,0,0,0,0,0,-4.0133,-4.0149,-4.0131,-4.0168,-4.0168,-4.0146,-4.0153,-4.0134,-4.0131,-4.013,-4.012,-4.0119,-4.013,-4.0138,-4.0148,-4.0193,-4.0189,-4.0215,-4.0224,-4.0232,-4.0237,-4.0259,-4.027,-4.0153,-4.0153,-4.0153,0,0,-4.017,-4.0162,-4.0173,-4.018,-4.0176,-4.0193,-4.0146,-4.0166,-4.0178,-4.0133,-4.0161,-4.0153,-4.015,-4.0187,-4.0203,-4.0183,-4.0269,-4.0238,-4.0244,-4.0245,-4.0265,-4.0277,-4.0286,-4.0156,-4.0156,-4.0155,0,0,-4.0246,-4.0241,-4.0271,-4.0268,-4.0264,-4.0249,-4.0256,-4.0244,-4.0237,-4.0264,-4.0231,-4.0245,-4.0266,-4.0264,-4.0266,-4.0341,-4.0315,-4.0345,-4.0393,-4.0415,-4.0424,-4.0432,-4.0458,-4.0468,-4.0351,-4.0351,-4.0351,0,-4.0293,-4.0316,-4.0289,-4.0311,-4.0314,-4.0275,-4.0304,-4.0303,-4.0302,-4.0305,-4.0283,-4.0308,-4.0303,-4.0339,-4.0357,-4.036,-4.0367,-4.0346,-4.0425,-4.0433,-4.044,-4.0464,-4.0474,-4.0354,-4.0354,-4.0354,-4.0353,0,-4.0373,-4.039,-4.0415,-4.0414,-4.042,-4.0446,-4.0423,-4.0432,-4.0413,-4.04,-4.0428,-4.0421,-4.0428,-4.0435,-4.0417,-4.0468,-4.0456,-4.043,-4.0391,-4.0455,-4.0477,-4.0486,-4.0359,-4.0358,-4.0357,-4.0356,0,0,-4.0486,-4.047,-4.0479,-4.0478,-4.047,-4.0482,-4.0506,-4.0513,-4.0521,-4.0522,-4.054,-4.0559,-4.0534,-4.0537,-4.0518,-4.0537,-4.0596,-4.0509,-4.0508,-4.0524,-4.0652,-4.0671,-4.0682,-4.0579,-4.0581,-4.0582,-4.0652,0,-4.0558,-4.0597,-4.0573,-4.0616,-4.0631,-4.0593,-4.0614,-4.0611,-4.06,-4.0611,-4.0598,-4.0612,-4.0579,-4.058,-4.0598,-4.0585,-4.0621,-4.058,-4.0596,-4.0597,-4.0597,-4.0694,-4.0714,-4.078,-4.066,-4.0662,-4.0663,0,-4.0647,-4.0651,-4.0695,-4.0683,-4.0688,-4.0707,-4.071,-4.0722,-4.0718,-4.0708,-4.0711,-4.0687,-4.0709,-4.0671,-4.0701,-4.0673,-4.0679,-4.0674,-4.0676,-4.0675,-4.0633,-4.0695,-4.0801,-4.081,-4.0677,-4.0675,-4.0674,0,-4.0724,-4.074,-4.0768,-4.0768,-4.0755,-4.0769,-4.0765,-4.0758,-4.0764,-4.0767,-4.077,-4.0776,-4.078,-4.0785,-4.0763,-4.0738,-4.0796,-4.0756,-4.0788,-4.0789,-4.0802,-4.0801,-4.0908,-4.0807,-4.0807,-4.0807,-4.0806,0,-4.0806,-4.0834,-4.0802,-4.0819,-4.085,-4.0822,-4.0853,-4.0844,-4.0839,-4.0854,-4.0823,-4.0837,-4.0808,-4.082,-4.0803,-4.083,-4.0832,-4.0825,-4.082,-4.0827,-4.0828,-4.0829,-4.0824,-4.0809,-4.0809,-4.0808,-4.0808,0,-4.0896,-4.0876,-4.0904,-4.0889,-4.0886,-4.0909,-4.0897,-4.0912,-4.0899,-4.0918,-4.0921,-4.09,-4.0912,-4.0891,-4.0901,-4.089,-4.0927,-4.0915,-4.0928,-4.0924,-4.0957,-4.0954,-4.1069,-4.1082,-4.0973,-4.0974,-4.0975,0,-4.0949,-4.097,-4.0957,-4.0965,-4.0962,-4.0974,-4.0979,-4.0953,-4.0959,-4.0956,-4.0972,-4.0981,-4.0987,-4.1008,-4.0994,-4.1001,-4.0989,-4.1029,-4.099,-4.0996,-4.0989,-4.0987,-4.0989,-4.1037,-4.1038,-4.1039,-4.104,0,-4.1046,-4.1034,-4.1043,-4.1047,-4.1054,-4.1057,-4.1057,-4.1065,-4.1037,-4.1046,-4.1058,-4.1062,-4.1072,-4.1082,-4.1085,-4.108,-4.1056,-4.1052,-4.106,-4.1067,-4.1073,-4.1069,-4.0949,-4.105,-4.1049,-4.1048,-4.1047,-4.1047,-4.1118,-4.1134,-4.1128,-4.1138,-4.1135,-4.1136,-4.1149,-4.1137,-4.1147,-4.1152,-4.1136,-4.1152,-4.1147,-4.1149,-4.1147,-4.1159,-4.1141,-4.1152,-4.1155,-4.1158,-4.1163,-4.1072,-4.1159,-4.1159,-4.1159,-4.1158,-4.1158,0,-4.1212,-4.1206,-4.1215,-4.1216,-4.1224,-4.12,-4.1199,-4.1207,-4.122,-4.1218,-4.1224,-4.1238,-4.1247,-4.1233,-4.124,-4.1252,-4.1241,-4.1255,-4.1253,-4.1252,-4.1178,-4.1171,-4.1263,-4.1263,-4.1263,-4.1263,-4.1263,-4.1263,-4.1261,-4.1287,-4.1275,-4.1299,-4.1293,-4.1307,-4.1309,-4.1309,-4.1307,-4.1323,-4.133,-4.1321,-4.1314,-4.132,-4.1327,-4.1323,-4.1327,-4.1345,-4.1337,-4.1268,-4.1257,-4.1248,-4.124,-4.1346,-4.1346,-4.1409,-4.1409,-4.141]}]]